N1PLV Weather Reports


Display with metric or nautical units.
time (UTC)temp
F
wind
direction
speed
MPH
gust
MPH
rain 1hr
in
rain 24hr
in
rain mn
in
humidity
%
barometer
mb
20260506164454 75 196 10.0 20.0 0.00 0.00 0.00 74 1015.9
20260506162955 75 261 10.0 22.0 0.00 0.00 0.00 73 1016.3
20260506161455 75 217 11.0 21.0 0.00 0.00 0.00 72 1016.6
20260506155957 76 229 10.0 19.0 0.00 0.00 0.00 72 1016.3
20260506154456 76 220 12.0 21.0 0.00 0.00 0.00 70 1016.7
20260506151457 76 222 11.0 20.0 0.00 0.00 0.00 70 1016.6
20260506145957 75 212 11.0 21.0 0.00 0.00 0.00 71 1016.6
20260506144457 75 206 10.0 20.0 0.00 0.00 0.00 70 1016.4
20260506142957 75 193 10.0 18.0 0.00 0.00 0.00 70 1016.6
20260506135957 73 188 6.0 12.0 0.00 0.00 0.00 75 1016.8
20260506131457 72 170 10.0 20.0 0.00 0.00 0.00 74 1016.8
20260506125957 72 200 9.0 20.0 0.00 0.00 0.00 75 1016.7
20260506124457 71 186 8.0 17.0 0.00 0.00 0.00 75 1017.0
20260506122957 71 174 8.0 17.0 0.00 0.00 0.00 77 1017.0
20260506121457 69 210 7.0 16.0 0.00 0.00 0.00 79 1016.8
20260506115957 69 198 8.0 16.0 0.00 0.00 0.00 80 1016.9
20260506114456 68 198 7.0 15.0 0.00 0.00 0.00 81 1017.0
20260506112957 67 200 6.0 12.0 0.00 0.00 0.00 83 1016.9
20260506104456 65 183 5.0 14.0 0.00 0.00 0.00 85 1016.8
20260506101456 65 192 6.0 11.0 0.00 0.00 0.00 84 1016.6
20260506091456 65 225 5.0 10.0 0.00 0.00 0.00 84 1017.0
20260506085957 65 186 5.0 10.0 0.00 0.00 0.00 84 1017.0
20260506084457 65 253 6.0 15.0 0.00 0.00 0.00 84 1016.9
20260506082957 65 186 6.0 13.0 0.00 0.00 0.00 84 1016.8
20260506081456 65 201 5.0 10.0 0.00 0.00 0.00 84 1016.8
20260506072957 65 210 6.0 11.0 0.00 0.00 0.00 83 1017.1
20260506071456 65 194 5.0 11.0 0.00 0.00 0.00 84 1017.0
20260506061456 65 213 6.0 12.0 0.00 0.00 0.00 84 1017.6
20260506044456 66 223 7.0 17.0 0.00 0.00 0.00 85 1017.8
20260506042956 66 200 7.0 16.0 0.00 0.00 0.00 85 1018.0
20260506041456 66 167 6.0 13.0 0.00 0.00 0.00 85 1018.1
20260506035956 66 221 6.0 12.0 0.00 0.00 0.00 84 1018.1
20260506032955 66 184 7.0 19.0 0.00 0.00 0.00 83 1018.1
20260506031455 67 263 8.0 15.0 0.00 0.00 0.00 82 1018.2
20260506024455 67 178 8.0 15.0 0.00 0.00 0.00 82 1018.0
20260506022955 67 148 7.0 14.0 0.00 0.00 0.00 82 1018.0
20260506021455 67 183 8.0 17.0 0.00 0.00 0.00 81 1018.5
20260506015955 67 213 9.0 16.0 0.00 0.00 0.00 81 1018.5
20260506014455 67 241 9.0 17.0 0.00 0.00 0.00 82 1018.5
20260506012955 67 218 9.0 16.0 0.00 0.00 0.00 82 1018.4
20260506005955 67 196 8.0 17.0 0.00 0.00 0.00 83 1018.1
20260506004455 68 213 8.0 16.0 0.00 0.00 0.00 81 1017.9
20260506002955 68 246 9.0 18.0 0.00 0.00 0.00 79 1017.7
20260506001455 68 234 8.0 15.0 0.00 0.00 0.00 77 1017.5
20260505235956 69 187 8.0 16.0 0.00 0.00 0.00 76 1017.5
20260505234455 69 220 10.0 18.0 0.00 0.00 0.00 75 1017.6
20260505232957 70 211 10.0 19.0 0.00 0.00 0.00 73 1017.4
20260505231455 70 204 11.0 20.0 0.00 0.00 0.00 70 1017.3
20260505225955 70 197 9.0 21.0 0.00 0.00 0.00 71 1017.3
20260505224455 71 219 9.0 20.0 0.00 0.00 0.00 70 1017.3
20260505222957 72 234 11.0 21.0 0.00 0.00 0.00 67 1017.3
20260505215955 74 232 11.0 22.0 0.00 0.00 0.00 64 1017.3
20260505214455 74 220 11.0 23.0 0.00 0.00 0.00 63 1017.3
20260505212955 75 234 12.0 19.0 0.00 0.00 0.00 61 1017.1
20260505211455 75 170 11.0 21.0 0.00 0.00 0.00 59 1017.2
20260505205955 76 179 12.0 22.0 0.00 0.00 0.00 59 1017.4
20260505202955 76 242 13.0 24.0 0.00 0.00 0.00 59 1017.5
20260505201455 76 223 13.0 20.0 0.00 0.00 0.00 58 1017.6
20260505195955 76 188 12.0 22.0 0.00 0.00 0.00 57 1017.7
20260505194455 77 167 12.0 23.0 0.00 0.00 0.00 58 1017.7
20260505192955 77 203 11.0 25.0 0.00 0.00 0.00 62 1018.0
20260505191455 77 207 10.0 19.0 0.00 0.00 0.00 61 1018.1
20260505185955 77 236 9.0 17.0 0.00 0.00 0.00 62 1018.2
20260505182955 77 208 10.0 20.0 0.00 0.00 0.00 62 1018.4
20260505181455 78 209 9.0 17.0 0.00 0.00 0.00 60 1018.5
20260505175955 77 225 11.0 19.0 0.00 0.00 0.00 59 1018.6
20260505174455 76 221 12.0 23.0 0.00 0.00 0.00 59 1018.6
20260505171455 77 213 10.0 23.0 0.00 0.00 0.00 56 1018.6
20260505165955 77 200 9.0 20.0 0.00 0.00 0.00 55 1018.5